Glenwood, MN

5:05 AM CST on January 18, 2018 (GMT -0600)
Glenwood Municipal

Weather History for KGHW - March, 2014

Change the Weather History Date:

Monday, March 17, 2014

  Actual Average Record
Temperature  
Mean Temperature 34 °F -  
Max Temperature 42 °F 36 °F 75 °F (2012)
Min Temperature 26 °F 18 °F -9 °F (1967)
Degree Days  
Heating Degree Days 31    
Moisture  
Dew Point 25 °F    
Average Humidity 75    
Maximum Humidity 87    
Minimum Humidity 57    
Precipitation  
Precipitation 0.00 in - - ()
Sea Level Pressure  
Sea Level Pressure 29.58 in    
Wind  
Wind Speed 16 mph (SE)    
Max Wind Speed 22 mph    
Max Gust Speed 32 mph    
Visibility 10 miles    
Events Snow    
Averages and records for this station are not official NWS values.
T = Trace of Precipitation, MM = Missing Value Source: NWS Daily Summary

Daily Weather History Graph

Daily Weather History Graph

Search for Another Location

Airport or City:

Trip Planner

Search our weather history database for the weather conditions in past years. The results will help you decide how hot, cold, wet, or windy it might be!

Date:

Astronomy

Mar. 17, 2014 Rise Set
Actual Time 7:29 AM CDT 7:29 PM CDT
Civil Twilight 7:00 AM CDT 7:59 PM CDT
Nautical Twilight 6:25 AM CDT 8:34 PM CDT
Astronomical Twilight 5:50 AM CDT 9:09 PM CDT
Moon 8:53 PM CDT (3/17) 7:42 AM CDT (3/17)
Length of Visible Light 12h 59m
Length of Day
11h 59m
Full, 99% of the Moon is Illuminated
Mar 17
Full
Mar 23
Last Quarter
Mar 30
New
Apr 7
First Quarter
Apr 15
Full

Hourly Weather History & Observations

Time (CDT) Temp. Windchill Dew Point Humidity Pressure Visibility Wind Dir Wind Speed Gust Speed Precip Events Conditions
12:13 AM 26.6 °F 12.4 °F 17.6 °F 69% 29.82 in 10.0 mi South 21.9 mph 32.2 mph N/A   Overcast
12:33 AM 26.6 °F 12.7 °F 17.6 °F 69% 29.81 in 10.0 mi South 20.7 mph 27.6 mph N/A   Overcast
12:53 AM 26.6 °F 12.4 °F 17.6 °F 69% 29.80 in 10.0 mi South 21.9 mph 28.8 mph N/A   Overcast
1:13 AM 26.6 °F 12.4 °F 19.4 °F 74% 29.79 in 10.0 mi South 21.9 mph 27.6 mph N/A   Overcast
1:33 AM 26.6 °F 13.1 °F 17.6 °F 69% 29.77 in 10.0 mi South 19.6 mph - N/A   Scattered Clouds
1:53 AM 26.6 °F 13.4 °F 17.6 °F 69% 29.75 in 10.0 mi SSE 18.4 mph 27.6 mph N/A   Clear
2:13 AM 26.6 °F 14.3 °F 17.6 °F 69% 29.74 in 10.0 mi SSE 16.1 mph 25.3 mph N/A   Clear
2:34 AM 26.6 °F 14.3 °F 19.4 °F 74% 29.72 in 10.0 mi South 16.1 mph 21.9 mph N/A   Clear
2:53 AM 26.6 °F 13.8 °F 19.4 °F 74% 29.72 in 10.0 mi South 17.3 mph - N/A   Clear
3:13 AM 26.6 °F 13.4 °F 19.4 °F 74% 29.71 in 10.0 mi SSE 18.4 mph 23.0 mph N/A   Clear
3:33 AM 26.6 °F 13.4 °F 19.4 °F 74% 29.69 in 10.0 mi SSE 18.4 mph 23.0 mph N/A   Clear
3:53 AM 26.6 °F 14.3 °F 19.4 °F 74% 29.67 in 10.0 mi SSE 16.1 mph - N/A   Clear
4:13 AM 26.6 °F 13.4 °F 19.4 °F 74% 29.66 in 10.0 mi South 18.4 mph 26.5 mph N/A   Clear
4:33 AM 28.4 °F 15.8 °F 19.4 °F 69% 29.65 in 10.0 mi South 18.4 mph 24.2 mph N/A   Scattered Clouds
4:53 AM 28.4 °F 15.8 °F 21.2 °F 74% 29.63 in 10.0 mi South 18.4 mph - N/A   Mostly Cloudy
5:13 AM 28.4 °F 16.2 °F 21.2 °F 74% 29.62 in 10.0 mi South 17.3 mph 25.3 mph N/A   Scattered Clouds
5:33 AM 28.4 °F 16.2 °F 21.2 °F 74% 29.61 in 10.0 mi South 17.3 mph 23.0 mph N/A   Scattered Clouds
5:54 AM 28.4 °F 17.0 °F 21.2 °F 74% 29.60 in 10.0 mi South 15.0 mph - N/A   Scattered Clouds
6:13 AM 28.4 °F 18.5 °F 21.2 °F 74% 29.60 in 10.0 mi South 11.5 mph - N/A   Scattered Clouds
6:33 AM 28.4 °F 17.5 °F 23.0 °F 80% 29.59 in 10.0 mi SSE 13.8 mph - N/A   Scattered Clouds
6:53 AM 28.4 °F 15.8 °F 23.0 °F 80% 29.57 in 10.0 mi South 18.4 mph 21.9 mph N/A   Scattered Clouds
7:13 AM 28.4 °F 16.2 °F 24.8 °F 86% 29.55 in 10.0 mi South 17.3 mph - N/A   Scattered Clouds
7:33 AM 28.4 °F 18.0 °F 24.8 °F 86% 29.55 in 10.0 mi South 12.7 mph - N/A   Scattered Clouds
7:53 AM 28.4 °F 18.0 °F 24.8 °F 86% 29.55 in 10.0 mi SSE 12.7 mph - N/A   Scattered Clouds
8:13 AM 28.4 °F 19.1 °F 24.8 °F 86% 29.55 in 10.0 mi SSE 10.4 mph - N/A   Scattered Clouds
8:33 AM 28.4 °F 19.7 °F 24.8 °F 86% 29.56 in 10.0 mi South 9.2 mph 16.1 mph N/A   Mostly Cloudy
8:53 AM 30.2 °F 19.8 °F 24.8 °F 80% 29.56 in 10.0 mi South 13.8 mph - N/A   Mostly Cloudy
9:14 AM 30.2 °F 20.8 °F 24.8 °F 80% 29.55 in 10.0 mi SSE 11.5 mph - N/A   Overcast
9:33 AM 30.2 °F 20.8 °F 26.6 °F 86% 29.55 in 10.0 mi South 11.5 mph - N/A   Overcast
9:53 AM 32.0 °F 22.5 °F 26.6 °F 80% 29.53 in 10.0 mi South 12.7 mph - N/A   Overcast
10:13 AM 33.8 °F 23.5 °F 26.6 °F 75% 29.52 in 10.0 mi South 16.1 mph - N/A   Mostly Cloudy
10:33 AM 33.8 °F 23.9 °F 26.6 °F 75% 29.52 in 10.0 mi South 15.0 mph - N/A   Clear
10:53 AM 33.8 °F 24.3 °F 26.6 °F 75% 29.52 in 10.0 mi SSE 13.8 mph - N/A   Scattered Clouds
11:13 AM 35.6 °F 27.1 °F 26.6 °F 70% 29.52 in 10.0 mi South 12.7 mph - N/A   Scattered Clouds
11:33 AM 35.6 °F 27.5 °F 26.6 °F 70% 29.52 in 10.0 mi SSE 11.5 mph - N/A   Clear
11:53 AM 35.6 °F 27.1 °F 26.6 °F 70% 29.51 in 10.0 mi SSE 12.7 mph - N/A   Clear
12:13 PM 37.4 °F 30.3 °F 26.6 °F 65% 29.51 in 10.0 mi South 10.4 mph - N/A   Clear
12:33 PM 37.4 °F 30.3 °F 26.6 °F 65% 29.51 in 10.0 mi SSE 10.4 mph - N/A   Clear
12:53 PM 39.2 °F 32.5 °F 26.6 °F 61% 29.50 in 10.0 mi SSE 10.4 mph - N/A   Clear
1:13 PM 39.2 °F 33.6 °F 26.6 °F 61% 29.50 in 10.0 mi SSE 8.1 mph - N/A   Clear
1:33 PM 39.2 °F 33.0 °F 26.6 °F 61% 29.50 in 10.0 mi SSE 9.2 mph - N/A   Clear
1:53 PM 39.2 °F 33.0 °F 26.6 °F 61% 29.49 in 10.0 mi SE 9.2 mph - N/A   Clear
2:13 PM 39.2 °F 33.6 °F 28.4 °F 65% 29.49 in 10.0 mi ESE 8.1 mph - N/A   Clear
2:33 PM 39.2 °F 31.6 °F 28.4 °F 65% 29.48 in 10.0 mi SE 12.7 mph 18.4 mph N/A   Clear
2:53 PM 42.8 °F 37.0 °F 28.4 °F 57% 29.49 in 10.0 mi ESE 10.4 mph - N/A   Clear
3:13 PM 41.0 °F 35.8 °F 28.4 °F 61% 29.49 in 10.0 mi SE 8.1 mph - N/A   Clear
3:33 PM 41.0 °F 34.3 °F 28.4 °F 61% 29.49 in 10.0 mi ESE 11.5 mph - N/A   Clear
3:53 PM 39.2 °F 31.2 °F 28.4 °F 65% 29.49 in 10.0 mi ESE 13.8 mph - N/A   Clear
4:13 PM 39.2 °F 33.0 °F 28.4 °F 65% 29.49 in 10.0 mi ESE 9.2 mph - N/A   Clear
4:33 PM 39.2 °F 31.6 °F 30.2 °F 70% 29.48 in 10.0 mi East 12.7 mph - N/A   Clear
4:53 PM 39.2 °F 31.2 °F 28.4 °F 65% 29.47 in 10.0 mi East 13.8 mph - N/A   Clear
5:14 PM 39.2 °F 30.2 °F 30.2 °F 70% 29.49 in 10.0 mi ESE 17.3 mph - N/A   Clear
5:33 PM 37.4 °F 28.5 °F 30.2 °F 75% 29.49 in 10.0 mi ESE 15.0 mph - N/A   Clear
5:53 PM 39.2 °F 30.8 °F 30.2 °F 70% 29.50 in 10.0 mi ESE 15.0 mph - N/A   Clear
6:13 PM 39.2 °F 31.6 °F 30.2 °F 70% 29.51 in 10.0 mi East 12.7 mph - N/A   Clear
6:34 PM 37.4 °F 29.8 °F 28.4 °F 70% 29.51 in 10.0 mi East 11.5 mph - N/A   Clear
6:53 PM 35.6 °F 28.0 °F 30.2 °F 81% 29.52 in 10.0 mi ESE 10.4 mph - N/A   Scattered Clouds
7:13 PM 35.6 °F 26.6 °F 28.4 °F 75% 29.52 in 10.0 mi East 13.8 mph - N/A   Scattered Clouds
7:33 PM 33.8 °F 24.8 °F 28.4 °F 81% 29.52 in 10.0 mi East 12.7 mph - N/A   Scattered Clouds
7:53 PM 33.8 °F 24.3 °F 28.4 °F 81% 29.53 in 10.0 mi East 13.8 mph 19.6 mph N/A   Clear
8:13 PM 33.8 °F 25.3 °F 28.4 °F 81% 29.54 in 10.0 mi ENE 11.5 mph - N/A   Clear
8:33 PM 32.0 °F 23.6 °F 28.4 °F 87% 29.55 in 10.0 mi East 10.4 mph - N/A   Clear
8:53 PM 33.8 °F 24.8 °F 28.4 °F 81% 29.55 in 10.0 mi East 12.7 mph - N/A   Clear
9:13 PM 32.0 °F 22.1 °F 28.4 °F 87% 29.55 in 10.0 mi ENE 13.8 mph - N/A   Clear
9:33 PM 32.0 °F 23.0 °F 28.4 °F 87% 29.57 in 10.0 mi ENE 11.5 mph - N/A   Clear
9:53 PM 32.0 °F 23.6 °F 28.4 °F 87% 29.58 in 10.0 mi East 10.4 mph - N/A   Scattered Clouds
10:13 PM 32.0 °F 22.5 °F 28.4 °F 87% 29.58 in 10.0 mi East 12.7 mph - N/A   Overcast
10:33 PM 32.0 °F 22.5 °F 28.4 °F 87% 29.58 in 10.0 mi East 12.7 mph - N/A   Overcast
10:53 PM 32.0 °F 23.0 °F 28.4 °F 87% 29.60 in 10.0 mi East 11.5 mph - N/A   Overcast
11:13 PM 32.0 °F 22.5 °F 28.4 °F 87% 29.60 in 10.0 mi East 12.7 mph - N/A   Overcast
11:33 PM 32.0 °F 21.2 °F 28.4 °F 87% 29.59 in 10.0 mi ENE 16.1 mph - N/A   Overcast
11:53 PM 32.0 °F 21.6 °F 28.4 °F 87% 29.58 in 3.0 mi ENE 15.0 mph - N/A Snow Light Snow